When you browse on this site, cookies collect data to enhance your experience and personalize the content and advertising you see.
Visit our Privacy Policy to learn more. By continuing to use the site, you agree to this use of cookies and data.
  • En España
  • Lista de países
  • Para 7 días
  • Temperatura del agua
  • Mapa Satelital
  • El tiempo en el mapa
  • Informadores
  • user-avatar
    Iniciar sesión

    Tiempo cada hora Benguela

    Hoy, 21 Marzo, Jueves

    Tiempo Temperatura Precipitaciones Viento Presión Humedad
    00:00 +29°C° 0.6 mm 1 mps 757 mmHg 83%
    01:00 +29°C° 0 mm 1 mps 757 mmHg 83%
    02:00 +29°C° 0 mm 1 mps 757 mmHg 83%
    03:00 +27°C° 0 mm 0 mps 757 mmHg 83%
    04:00 +27°C° 0 mm 0 mps 757 mmHg 83%
    05:00 +27°C° 0 mm 0 mps 757 mmHg 82%
    06:00 +27°C° 0 mm 0 mps 757 mmHg 81%
    07:00 +28°C° 0 mm 0 mps 757 mmHg 78%
    08:00 +29°C° 0 mm 0 mps 757 mmHg 72%
    09:00 +33°C° 0 mm 1 mps 757 mmHg 65%
    10:00 +34°C° 0 mm 1 mps 757 mmHg 59%
    11:00 +36°C° 0 mm 2 mps 757 mmHg 57%
    12:00 +37°C° 0 mm 3 mps 756 mmHg 55%
    13:00 +38°C° 0 mm 4 mps 756 mmHg 53%
    14:00 +38°C° 0 mm 4 mps 755 mmHg 56%
    15:00 +37°C° 0 mm 4 mps 755 mmHg 60%
    16:00 +36°C° 0 mm 4 mps 754 mmHg 64%
    17:00 +35°C° 0 mm 4 mps 755 mmHg 68%
    18:00 +34°C° 0 mm 3 mps 755 mmHg 71%
    19:00 +31°C° 0 mm 3 mps 756 mmHg 75%
    20:00 +31°C° 0 mm 2 mps 756 mmHg 76%
    21:00 +31°C° 0 mm 2 mps 757 mmHg 76%
    22:00 +31°C° 0 mm 1 mps 757 mmHg 76%
    23:00 +31°C° 0 mm 1 mps 757 mmHg 76%

    Mañana, 22 Marzo, Viernes

    Tiempo Temperatura Precipitaciones Viento Presión Humedad
    00:00 +31°C° 0 mm 1 mps 757 mmHg 76%
    01:00 +31°C° 0 mm 1 mps 757 mmHg 76%
    02:00 +31°C° 0 mm 1 mps 756 mmHg 75%
    03:00 +31°C° 0 mm 2 mps 756 mmHg 74%
    04:00 +31°C° 0 mm 2 mps 756 mmHg 74%
    05:00 +31°C° 0 mm 2 mps 756 mmHg 72%
    06:00 +31°C° 0 mm 2 mps 756 mmHg 71%
    07:00 +31°C° 0 mm 1 mps 756 mmHg 69%
    08:00 +34°C° 0 mm 2 mps 757 mmHg 63%
    09:00 +35°C° 0 mm 2 mps 757 mmHg 58%
    10:00 +37°C° 0 mm 3 mps 757 mmHg 52%
    11:00 +37°C° 0 mm 3 mps 757 mmHg 53%
    12:00 +37°C° 0 mm 4 mps 756 mmHg 54%
    13:00 +39°C° 0 mm 5 mps 756 mmHg 55%
    14:00 +37°C° 0 mm 4 mps 756 mmHg 57%
    15:00 +36°C° 0 mm 4 mps 755 mmHg 60%
    16:00 +35°C° 0 mm 3 mps 755 mmHg 63%
    17:00 +34°C° 0 mm 3 mps 756 mmHg 66%
    18:00 +33°C° 0 mm 3 mps 756 mmHg 69%
    19:00 +31°C° 0 mm 2 mps 756 mmHg 72%
    20:00 +31°C° 0 mm 2 mps 757 mmHg 72%
    21:00 +31°C° 0 mm 3 mps 757 mmHg 72%
    22:00 +31°C° 0 mm 3 mps 758 mmHg 72%
    23:00 +31°C° 0 mm 3 mps 757 mmHg 71%

    Pasado mañana, 23 Marzo, Sábado

    Tiempo Temperatura Precipitaciones Viento Presión Humedad
    00:00 +31°C° 0 mm 2 mps 757 mmHg 71%
    01:00 +31°C° 0 mm 2 mps 757 mmHg 70%
    02:00 +31°C° 0 mm 2 mps 757 mmHg 71%
    03:00 +31°C° 0 mm 2 mps 756 mmHg 71%
    04:00 +31°C° 0 mm 1 mps 756 mmHg 71%
    05:00 +31°C° 0 mm 1 mps 756 mmHg 71%
    06:00 +31°C° 0 mm 1 mps 757 mmHg 71%
    07:00 +31°C° 0 mm 1 mps 757 mmHg 70%
    08:00 +32°C° 0 mm 2 mps 757 mmHg 67%
    09:00 +34°C° 0 mm 2 mps 758 mmHg 64%
    10:00 +35°C° 0 mm 3 mps 758 mmHg 60%
    11:00 +35°C° 0 mm 3 mps 757 mmHg 60%
    12:00 +36°C° 0 mm 3 mps 757 mmHg 59%
    13:00 +36°C° 0 mm 4 mps 756 mmHg 59%
    14:00 +36°C° 0 mm 4 mps 756 mmHg 60%
    15:00 +35°C° 0 mm 4 mps 755 mmHg 62%
    16:00 +35°C° 0 mm 4 mps 755 mmHg 63%
    17:00 +34°C° 0 mm 4 mps 755 mmHg 66%
    18:00 +33°C° 0 mm 4 mps 756 mmHg 68%
    19:00 +31°C° 0 mm 3 mps 756 mmHg 71%
    20:00 +31°C° 0 mm 3 mps 757 mmHg 71%
    21:00 +31°C° 0 mm 2 mps 757 mmHg 72%
    22:00 +31°C° 0 mm 1 mps 758 mmHg 72%
    23:00 +31°C° 0 mm 1 mps 758 mmHg 73%

    24 Marzo, Domingo

    Tiempo Temperatura Precipitaciones Viento Presión Humedad
    00:00 +30°C° 0 mm 1 mps 758 mmHg 75%
    01:00 +30°C° 0 mm 1 mps 758 mmHg 76%
    02:00 +30°C° 0 mm 1 mps 757 mmHg 77%
    03:00 +30°C° 0 mm 2 mps 757 mmHg 79%
    04:00 +29°C° 0 mm 2 mps 757 mmHg 80%
    05:00 +29°C° 0.1 mm 2 mps 757 mmHg 81%
    06:00 +29°C° 0.1 mm 2 mps 757 mmHg 83%
    07:00 +29°C° 0.1 mm 2 mps 758 mmHg 84%
    08:00 +30°C° 0 mm 2 mps 758 mmHg 80%
    09:00 +31°C° 0 mm 2 mps 758 mmHg 75%
    10:00 +32°C° 0 mm 2 mps 759 mmHg 71%
    11:00 +33°C° 0 mm 3 mps 758 mmHg 70%
    12:00 +34°C° 0 mm 3 mps 757 mmHg 68%
    13:00 +34°C° 0 mm 4 mps 757 mmHg 67%
    14:00 +33°C° 0 mm 4 mps 757 mmHg 70%
    15:00 +33°C° 0 mm 3 mps 756 mmHg 73%
    16:00 +31°C° 0 mm 3 mps 756 mmHg 76%
    17:00 +30°C° 0 mm 3 mps 756 mmHg 77%
    18:00 +30°C° 0 mm 2 mps 757 mmHg 78%
    19:00 +30°C° 0 mm 2 mps 757 mmHg 79%
    20:00 +30°C° 0 mm 1 mps 758 mmHg 81%
    21:00 +29°C° 0 mm 1 mps 758 mmHg 82%
    22:00 +29°C° 0 mm 1 mps 758 mmHg 83%
    23:00 +29°C° 0 mm 1 mps 758 mmHg 83%

    25 Marzo, Lunes

    Tiempo Temperatura Precipitaciones Viento Presión Humedad
    00:00 +29°C° 0 mm 1 mps 758 mmHg 84%
    01:00 +29°C° 0 mm 1 mps 758 mmHg 85%
    02:00 +28°C° 0 mm 1 mps 757 mmHg 85%
    03:00 +28°C° 0 mm 1 mps 757 mmHg 86%
    04:00 +28°C° 0 mm 1 mps 756 mmHg 86%
    05:00 +28°C° 0 mm 1 mps 757 mmHg 85%
    06:00 +29°C° 0 mm 1 mps 757 mmHg 83%
    07:00 +27°C° 0 mm 0 mps 757 mmHg 82%
    08:00 +28°C° 0 mm 0 mps 758 mmHg 78%
    09:00 +28°C° 0 mm 0 mps 758 mmHg 75%
    10:00 +31°C° 0 mm 1 mps 758 mmHg 71%
    11:00 +34°C° 0 mm 2 mps 757 mmHg 65%
    12:00 +35°C° 0 mm 3 mps 756 mmHg 59%
    13:00 +37°C° 0 mm 4 mps 756 mmHg 53%
    14:00 +36°C° 0 mm 4 mps 755 mmHg 57%
    15:00 +35°C° 0 mm 4 mps 755 mmHg 61%
    16:00 +35°C° 0 mm 4 mps 755 mmHg 65%
    17:00 +33°C° 0 mm 4 mps 755 mmHg 69%
    18:00 +31°C° 0 mm 3 mps 756 mmHg 74%
    19:00 +30°C° 0 mm 2 mps 757 mmHg 78%
    20:00 +30°C° 0.1 mm 2 mps 757 mmHg 80%
    21:00 +29°C° 0.1 mm 1 mps 758 mmHg 81%
    22:00 +29°C° 0.1 mm 1 mps 758 mmHg 83%
    23:00 +29°C° 0.4 mm 1 mps 758 mmHg 83%

    26 Marzo, Martes

    Tiempo Temperatura Precipitaciones Viento Presión Humedad
    00:00 +28°C° 0.4 mm 1 mps 758 mmHg 83%
    01:00 +28°C° 0.4 mm 1 mps 758 mmHg 84%
    02:00 +28°C° 0 mm 1 mps 758 mmHg 83%
    03:00 +28°C° 0 mm 1 mps 757 mmHg 83%
    04:00 +28°C° 0 mm 1 mps 757 mmHg 83%
    05:00 +28°C° 0 mm 1 mps 757 mmHg 82%
    06:00 +27°C° 0 mm 0 mps 758 mmHg 80%
    07:00 +27°C° 0 mm 0 mps 758 mmHg 79%
    08:00 +30°C° 0 mm 1 mps 758 mmHg 73%
    09:00 +32°C° 0 mm 1 mps 758 mmHg 66%
    10:00 +33°C° 0 mm 1 mps 758 mmHg 60%
    11:00 +35°C° 0 mm 2 mps 758 mmHg 57%
    12:00 +36°C° 0 mm 4 mps 757 mmHg 54%
    13:00 +37°C° 0 mm 5 mps 756 mmHg 51%
    14:00 +37°C° 0 mm 5 mps 756 mmHg 54%
    15:00 +36°C° 0 mm 5 mps 756 mmHg 57%
    16:00 +35°C° 0 mm 5 mps 755 mmHg 60%
    17:00 +34°C° 0.5 mm 4 mps 756 mmHg 66%
    18:00 +31°C° 0.5 mm 3 mps 757 mmHg 71%
    19:00 +30°C° 0.5 mm 2 mps 757 mmHg 76%
    20:00 +29°C° 0.4 mm 2 mps 758 mmHg 78%
    21:00 +29°C° 0.4 mm 2 mps 758 mmHg 79%
    22:00 +29°C° 0.4 mm 1 mps 759 mmHg 81%
    23:00 +29°C° 0.3 mm 1 mps 758 mmHg 81%
    Mostrar más